I1SCL Weather Reports


Display with metric or nautical units.
time (UTC)temp
F
wind
direction
speed
MPH
gust
MPH
rain 1hr
in
rain 24hr
in
rain mn
in
humidity
%
barometer
mb
20260507130625 63 135 1.0 8.0 0.00 0.00 0.00 63 1011.3
20260507130128 63 135 3.0 9.0 0.00 0.00 0.00 63 1011.2
20260507125626 64 158 2.0 6.0 0.00 0.00 0.00 64 1011.3
20260507125131 63 135 3.0 8.0 0.00 0.00 0.00 65 1011.2
20260507124625 64 158 5.0 9.0 0.00 0.00 0.00 66 1011.1
20260507124125 62 135 6.0 9.0 0.00 0.00 0.00 65 1011.1
20260507123628 62 158 6.0 10.0 0.00 0.00 0.00 66 1010.9
20260507123122 62 135 7.0 10.0 0.00 0.00 0.00 67 1010.9
20260507122622 62 113 6.0 9.0 0.00 0.00 0.00 69 1011.2
20260507122128 62 90 5.0 11.0 0.00 0.00 0.00 70 1010.8
20260507121622 62 158 9.0 11.0 0.00 0.00 0.00 70 1010.8
20260507121125 63 135 4.0 10.0 0.00 0.00 0.00 68 1010.7
20260507120622 64 158 6.0 10.0 0.00 0.00 0.00 71 1010.7
20260507120122 63 113 6.0 9.0 0.00 0.00 0.00 68 1010.6
20260507115622 64 68 3.0 12.0 0.00 0.00 0.00 70 1010.9
20260507115122 63 135 3.0 10.0 0.00 0.00 0.00 68 1010.6
20260507114626 63 90 5.0 13.0 0.00 0.00 0.00 73 1010.3
20260507114125 63 113 5.0 11.0 0.00 0.00 0.00 72 1010.8
20260507113625 62 135 5.0 9.0 0.00 0.00 0.00 72 1010.6
20260507113125 63 113 3.0 8.0 0.00 0.00 0.00 72 1010.7
20260507112622 64 158 2.0 10.0 0.00 0.00 0.00 73 1010.7
20260507112122 62 135 3.0 10.0 0.00 0.00 0.00 75 1010.6
20260507111622 62 158 4.0 11.0 0.00 0.00 0.00 74 1010.9
20260507111125 62 135 6.0 11.0 0.00 0.00 0.00 74 1011.2
20260507110622 63 135 3.0 10.0 0.00 0.00 0.00 74 1011.1
20260507110125 64 248 4.0 10.0 0.00 0.00 0.00 74 1011.0
20260507105623 63 135 5.0 9.0 0.00 0.00 0.00 70 1010.9
20260507105122 62 113 6.0 10.0 0.00 0.00 0.00 72 1010.8
20260507104622 63 180 1.0 10.0 0.00 0.00 0.00 75 1010.9
20260507104122 62 158 3.0 9.0 0.00 0.00 0.00 74 1011.0
20260507103622 63 135 3.0 10.0 0.00 0.00 0.00 74 1011.1
20260507103125 62 135 6.0 10.0 0.00 0.00 0.00 74 1010.9
20260507102622 62 113 4.0 11.0 0.00 0.00 0.00 75 1010.6
20260507102125 62 135 6.0 10.0 0.00 0.00 0.00 74 1010.9
20260507101628 62 113 6.0 10.0 0.00 0.00 0.00 73 1010.9
20260507101122 62 90 3.0 12.0 0.00 0.00 0.00 75 1011.0
20260507100622 62 135 6.0 10.0 0.00 0.00 0.00 75 1011.1
20260507100122 62 45 3.0 11.0 0.00 0.00 0.00 76 1010.9
20260507095622 62 135 7.0 11.0 0.00 0.00 0.00 74 1010.9
20260507095125 61 90 7.0 10.0 0.00 0.00 0.00 75 1011.0
20260507094625 62 180 6.0 11.0 0.00 0.00 0.00 77 1011.1
20260507094122 61 158 6.0 13.0 0.00 0.00 0.00 77 1011.0
20260507093628 61 90 6.0 13.0 0.00 0.00 0.00 77 1011.0
20260507093122 62 113 3.0 9.0 0.00 0.00 0.00 76 1010.7
20260507092625 62 248 5.0 6.0 0.00 0.00 0.00 78 1010.8
20260507092122 61 90 3.0 10.0 0.00 0.00 0.00 78 1010.9
20260507091622 61 135 8.0 10.0 0.00 0.00 0.00 77 1010.7
20260507091122 62 158 7.0 11.0 0.00 0.00 0.00 76 1011.0
20260507090625 62 158 7.0 11.0 0.00 0.00 0.00 75 1010.8
20260507090125 61 180 4.0 11.0 0.00 0.00 0.00 75 1010.7
20260507085622 62 135 2.0 8.0 0.00 0.00 0.00 76 1010.7
20260507085122 61 135 5.0 9.0 0.00 0.00 0.00 76 1010.7
20260507084625 61 158 5.0 9.0 0.00 0.00 0.00 77 1010.6
20260507084125 61 90 4.0 9.0 0.00 0.00 0.00 76 1010.6
20260507083622 60 113 6.0 9.0 0.00 0.00 0.00 74 1010.7
20260507083122 62 113 2.0 11.0 0.00 0.00 0.00 75 1010.5
20260507082628 62 180 3.0 8.0 0.00 0.00 0.00 73 1010.2
20260507082122 62 135 4.0 9.0 0.00 0.00 0.00 72 1010.2
20260507081625 62 203 2.0 10.0 0.00 0.00 0.00 73 1010.6
20260507081122 62 90 6.0 8.0 0.00 0.00 0.00 71 1010.1
20260507080622 61 135 4.0 9.0 0.00 0.00 0.00 72 1010.3
20260507080125 61 113 3.0 8.0 0.00 0.00 0.00 71 1010.2
20260507075622 62 113 3.0 8.0 0.00 0.00 0.00 70 1010.2
20260507075128 62 113 0.0 6.0 0.00 0.00 0.00 71 1010.5
20260507074625 62 113 3.0 6.0 0.00 0.00 0.00 70 1010.5
20260507074128 62 68 3.0 6.0 0.00 0.00 0.00 69 1010.5
20260507073622 62 90 2.0 4.0 0.00 0.00 0.00 69 1010.3
20260507073125 61 113 3.0 4.0 0.00 0.00 0.00 68 1010.3
20260507072622 61 113 3.0 4.0 0.00 0.00 0.00 68 1010.3
20260507072122 61 113 3.0 4.0 0.00 0.00 0.00 68 1010.2
20260507071622 61 135 1.0 4.0 0.00 0.00 0.00 68 1010.2
20260507071122 61 135 3.0 6.0 0.00 0.00 0.00 68 1009.9
20260507070628 61 90 3.0 6.0 0.00 0.00 0.00 71 1010.0
20260507070122 61 135 3.0 4.0 0.00 0.00 0.00 70 1010.0
20260507065625 60 158 1.0 6.0 0.00 0.00 0.00 71 1010.0
20260507065122 62 135 2.0 4.0 0.00 0.00 0.00 71 1009.8
20260507064625 60 113 0.0 6.0 0.00 0.00 0.00 71 1010.0
20260507064122 60 113 3.0 6.0 0.00 0.00 0.00 73 1009.9
20260507063625 60 113 3.0 4.0 0.00 0.00 0.00 75 1009.9
20260507063122 58 90 0.0 1.0 0.00 0.00 0.00 77 1009.9
20260507062622 58 23 0.0 1.0 0.00 0.00 0.00 78 1009.5
20260507062122 58 23 0.0 1.0 0.00 0.00 0.00 77 1009.7
20260507061622 58 315 0.0 2.0 0.00 0.00 0.00 77 1009.6
20260507061125 59 45 0.0 1.0 0.00 0.00 0.00 76 1009.6
20260507060623 59 113 0.0 0.0 0.00 0.00 0.00 75 1009.5
20260507060125 59 113 0.0 1.0 0.00 0.00 0.00 75 1009.5
20260507055628 59 68 0.0 2.0 0.00 0.00 0.00 76 1009.4
20260507055122 59 90 0.0 3.0 0.00 0.00 0.00 76 1009.5
20260507054622 59 90 2.0 3.0 0.00 0.00 0.00 76 1009.2
20260507054122 59 68 2.0 4.0 0.00 0.00 0.00 76 1009.5
20260507053622 59 113 2.0 4.0 0.00 0.00 0.00 75 1009.0
20260507053122 59 90 2.0 6.0 0.00 0.00 0.00 75 1009.2
20260507052625 59 90 4.0 6.0 0.00 0.00 0.00 74 1009.0
20260507052128 59 68 2.0 6.0 0.00 0.00 0.00 74 1008.8
20260507051625 58 90 2.0 4.0 0.00 0.00 0.00 75 1008.9
20260507051122 58 113 3.0 6.0 0.00 0.00 0.00 75 1008.9
20260507050628 58 90 4.0 8.0 0.00 0.00 0.00 75 1008.6
20260507050122 57 90 4.0 8.0 0.00 0.00 0.00 76 1008.5
20260507045625 57 90 5.0 9.0 0.00 0.00 0.00 76 1008.4
20260507045122 57 113 4.0 9.0 0.00 0.00 0.00 76 1008.5
20260507044622 57 90 4.0 8.0 0.00 0.00 0.00 77 1008.5
20260507044128 56 113 3.0 6.0 0.00 0.00 0.00 78 1008.3
20260507043622 56 113 5.0 8.0 0.00 0.00 0.00 78 1008.5
20260507043125 56 113 3.0 9.0 0.00 0.00 0.00 79 1008.2
20260507042622 56 90 5.0 8.0 0.00 0.00 0.00 79 1008.2
20260507042122 56 135 4.0 8.0 0.00 0.00 0.00 80 1008.2
20260507041625 56 113 3.0 8.0 0.00 0.00 0.00 80 1008.5
20260507041125 56 68 6.0 9.0 0.00 0.00 0.00 80 1008.2
20260507040622 56 113 4.0 6.0 0.00 0.00 0.00 80 1008.2
20260507040122 56 90 4.0 6.0 0.00 0.00 0.00 80 1008.2
20260507035625 56 113 3.0 8.0 0.00 0.00 0.00 80 1008.3
20260507035122 56 113 6.0 8.0 0.00 0.00 0.00 80 1008.1
20260507034622 56 90 5.0 8.0 0.00 0.00 0.00 79 1008.2
20260507034125 56 90 4.0 8.0 0.00 0.01 0.00 78 1008.2
20260507033625 56 90 3.0 8.0 0.00 0.03 0.00 78 1008.2
20260507033122 56 90 4.0 6.0 0.00 0.05 0.00 78 1008.1
20260507032625 56 90 4.0 6.0 0.00 0.10 0.00 78 1008.0
20260507032125 56 113 3.0 6.0 0.00 0.11 0.00 78 1008.2
20260507031625 56 113 3.0 6.0 0.00 0.12 0.00 78 1008.0
20260507031128 56 113 3.0 6.0 0.00 0.12 0.00 80 1008.0
20260507030622 56 113 2.0 4.0 0.00 0.12 0.00 81 1008.2
20260507030122 56 113 3.0 4.0 0.00 0.12 0.00 81 1008.1
20260507025622 56 135 2.0 3.0 0.00 0.12 0.00 80 1008.2
20260507025122 57 113 3.0 4.0 0.00 0.12 0.00 80 1007.9
20260507024622 56 113 3.0 4.0 0.00 0.12 0.00 80 1008.1
20260507024131 56 113 3.0 4.0 0.00 0.12 0.00 81 1008.0
20260507023625 56 113 3.0 4.0 0.00 0.12 0.00 82 1008.0
20260507023122 57 113 3.0 4.0 0.00 0.12 0.00 82 1007.9
20260507022631 57 113 1.0 4.0 0.00 0.12 0.00 83 1007.8
20260507022122 57 113 3.0 4.0 0.00 0.12 0.00 83 1008.0
20260507021628 57 90 3.0 4.0 0.00 0.12 0.00 83 1007.7
20260507021126 57 113 1.0 3.0 0.00 0.12 0.00 82 1007.9
20260507020623 57 90 1.0 3.0 0.00 0.12 0.00 82 1007.9
20260507020125 57 113 2.0 3.0 0.00 0.12 0.00 82 1007.8
20260507015622 57 113 0.0 3.0 0.00 0.12 0.00 82 1007.7
20260507015125 57 113 1.0 2.0 0.00 0.12 0.00 81 1007.7
20260507014622 57 113 2.0 2.0 0.00 0.12 0.00 79 1007.6
20260507014122 58 135 0.0 2.0 0.00 0.12 0.00 78 1007.7
20260507013622 58 203 1.0 3.0 0.00 0.12 0.00 79 1007.7
20260507013122 57 248 0.0 1.0 0.00 0.12 0.00 79 1007.5
20260507012622 57 315 0.0 2.0 0.00 0.12 0.00 79 1007.5
20260507012131 57 338 1.0 2.0 0.00 0.12 0.00 79 1007.7
20260507011625 57 0 0.0 1.0 0.00 0.12 0.00 79 1007.5
20260507010625 57 338 1.0 2.0 0.00 0.12 0.00 79 1007.6
20260507010128 57 0 0.0 2.0 0.00 0.12 0.00 79 1007.5
20260507005622 58 23 1.0 2.0 0.00 0.12 0.00 79 1007.6
20260507005128 57 90 1.0 2.0 0.00 0.12 0.00 79 1007.5
20260507004622 57 90 1.0 2.0 0.00 0.12 0.00 79 1007.7
20260507004125 57 90 0.0 0.0 0.00 0.12 0.00 79 1007.6
20260507003625 57 90 0.0 0.0 0.00 0.12 0.00 78 1007.5
20260507003122 58 90 0.0 0.0 0.00 0.12 0.00 78 1007.5
20260507002625 58 90 0.0 0.0 0.00 0.12 0.00 78 1007.7
20260507002122 58 113 0.0 0.0 0.00 0.12 0.00 78 1007.7
20260507001625 57 113 0.0 0.0 0.00 0.12 0.00 78 1007.6
20260507001125 58 113 0.0 0.0 0.00 0.12 0.00 78 1007.5
20260507000631 58 90 0.0 0.0 0.00 0.12 0.00 78 1007.6
20260507000125 58 90 0.0 0.0 0.00 0.12 0.00 78 1007.6
20260506235625 58 90 0.0 0.0 0.00 0.14 0.00 79 1007.7
20260506235126 58 90 0.0 0.0 0.00 0.14 0.00 79 1007.8
20260506234625 58 113 0.0 0.0 0.00 0.15 0.00 79 1007.5
20260506234122 58 113 0.0 0.0 0.00 0.15 0.00 79 1007.7
20260506233628 58 135 0.0 0.0 0.00 0.15 0.00 79 1007.6
20260506233125 58 113 0.0 0.0 0.00 0.15 0.00 79 1007.5
20260506232622 58 113 0.0 0.0 0.00 0.15 0.00 79 1007.7
20260506232122 58 113 0.0 0.0 0.00 0.15 0.00 79 1007.4
20260506231622 58 113 0.0 0.0 0.00 0.15 0.00 79 1007.7
20260506231125 58 90 0.0 0.0 0.00 0.16 0.00 78 1007.9
20260506230622 58 113 0.0 2.0 0.00 0.16 0.00 78 1007.8
20260506230125 59 113 1.0 3.0 0.00 0.16 0.00 77 1007.8
20260506225622 59 113 2.0 2.0 0.00 0.16 0.00 77 1007.8
20260506225128 58 113 1.0 3.0 0.00 0.17 0.00 77 1008.0
20260506224625 58 113 3.0 4.0 0.00 0.20 0.00 76 1007.6
20260506224122 58 113 3.0 4.0 0.00 0.20 0.00 76 1007.4
20260506223628 58 90 3.0 6.0 0.00 0.21 0.00 76 1007.7
20260506223122 58 113 3.0 4.0 0.00 0.23 0.00 77 1007.4
20260506222622 58 113 3.0 6.0 0.00 0.24 0.00 77 1007.5
20260506222122 58 113 3.0 6.0 0.00 0.25 0.00 76 1007.2
20260506221625 58 90 2.0 6.0 0.00 0.25 0.00 77 1007.6
20260506221122 58 113 3.0 6.0 0.00 0.27 0.00 76 1007.5
20260506220622 58 90 4.0 10.0 0.00 0.27 0.00 76 1007.4
20260506220122 59 68 5.0 9.0 0.00 0.27 0.00 76 1007.3
20260506215622 58 68 5.0 8.0 0.00 0.27 0.00 76 1007.3
20260506215122 58 45 4.0 9.0 0.00 0.27 0.00 76 1007.4
20260506214628 58 45 3.0 8.0 0.00 0.27 0.00 77 1007.5
20260506214122 58 45 3.0 6.0 0.00 0.27 0.00 80 1007.5
20260506213625 58 90 1.0 2.0 0.00 0.27 0.00 81 1007.6
20260506213122 58 90 0.0 2.0 0.00 0.27 0.00 82 1007.5
20260506212622 58 180 1.0 2.0 0.00 0.27 0.00 82 1007.7
20260506212122 58 293 0.0 6.0 0.00 0.27 0.00 81 1007.7
20260506211628 58 293 4.0 6.0 0.00 0.27 0.00 81 1007.7
20260506211128 58 270 6.0 8.0 0.00 0.27 0.00 81 1007.8
20260506210622 58 293 6.0 10.0 0.00 0.27 0.00 81 1007.7
20260506210122 59 293 9.0 11.0 0.00 0.27 0.00 81 1007.5
20260506205622 59 293 8.0 11.0 0.00 0.27 0.00 81 1007.4
20260506205125 59 293 9.0 13.0 0.00 0.27 0.00 81 1007.5
20260506204622 59 293 8.0 11.0 0.00 0.27 0.00 81 1007.5
20260506204122 59 293 9.0 15.0 0.00 0.27 0.00 81 1007.5
20260506203625 59 293 10.0 17.0 0.00 0.27 0.00 81 1007.4
20260506203122 58 293 9.0 15.0 0.00 0.27 0.00 81 1007.4
20260506202622 59 270 9.0 15.0 0.00 0.27 0.00 81 1007.2
20260506202125 59 293 9.0 15.0 0.00 0.27 0.00 80 1007.2
20260506201622 59 293 9.0 12.0 0.00 0.27 0.00 80 1007.3
20260506201125 59 293 9.0 15.0 0.00 0.27 0.00 79 1007.3
20260506200628 59 293 9.0 18.0 0.00 0.27 0.00 79 1007.3
20260506200122 59 270 13.0 18.0 0.00 0.27 0.00 78 1007.3
20260506195625 59 270 14.0 18.0 0.00 0.27 0.00 78 1007.1
20260506195122 59 293 12.0 17.0 0.00 0.27 0.00 79 1007.2
20260506194622 59 293 6.0 13.0 0.00 0.27 0.00 79 1007.2
20260506194125 59 338 8.0 18.0 0.00 0.27 0.00 79 1007.1
20260506193631 59 293 13.0 18.0 0.00 0.27 0.00 78 1007.0
20260506193128 59 293 9.0 17.0 0.00 0.27 0.00 78 1006.9
20260506192622 59 315 12.0 17.0 0.00 0.27 0.00 78 1006.6
20260506192129 59 293 10.0 13.0 0.00 0.27 0.00 78 1006.6
20260506191622 59 270 9.0 15.0 0.00 0.27 0.00 78 1006.6
20260506191122 59 293 10.0 15.0 0.00 0.27 0.00 78 1006.6
20260506190625 59 293 10.0 12.0 0.00 0.27 0.00 79 1006.4
20260506190125 59 293 9.0 11.0 0.00 0.27 0.00 79 1006.3
20260506185622 59 270 8.0 11.0 0.00 0.27 0.00 79 1006.4
20260506185125 59 270 9.0 12.0 0.00 0.27 0.00 78 1006.2
20260506184622 60 270 10.0 15.0 0.00 0.27 0.00 77 1006.2
20260506184125 60 293 8.0 15.0 0.00 0.27 0.00 77 1006.0
20260506183622 60 270 9.0 12.0 0.00 0.27 0.00 77 1005.9
20260506183122 60 270 9.0 17.0 0.00 0.27 0.00 76 1006.3
20260506182631 60 293 9.0 13.0 0.00 0.27 0.00 77 1006.0
20260506182125 60 293 7.0 11.0 0.00 0.27 0.00 77 1006.2
20260506181625 60 293 8.0 10.0 0.00 0.27 0.00 77 1005.9
20260506181125 60 315 7.0 10.0 0.00 0.27 0.00 77 1006.3
20260506180628 60 293 5.0 6.0 0.00 0.27 0.00 75 1005.9
20260506180125 60 293 5.0 12.0 0.00 0.27 0.00 75 1006.0
20260506175622 61 293 9.0 15.0 0.00 0.27 0.00 74 1006.0
20260506175122 61 270 8.0 11.0 0.00 0.27 0.00 74 1006.0
20260506174625 61 270 9.0 12.0 0.00 0.27 0.00 74 1006.0
20260506174122 61 270 9.0 11.0 0.00 0.27 0.00 73 1005.8
20260506173625 62 293 9.0 10.0 0.00 0.27 0.00 74 1005.9
20260506173125 61 293 9.0 12.0 0.00 0.27 0.00 73 1006.0
20260506172628 62 270 7.0 11.0 0.00 0.27 0.00 74 1005.8
20260506172128 62 270 9.0 12.0 0.00 0.27 0.00 73 1005.9
20260506171622 62 270 6.0 12.0 0.00 0.27 0.00 73 1005.8
20260506171122 62 270 9.0 15.0 0.00 0.27 0.00 73 1005.9
20260506170622 62 270 9.0 13.0 0.00 0.27 0.00 73 1005.6
20260506170122 62 270 9.0 12.0 0.00 0.27 0.00 74 1005.8
20260506165622 62 270 9.0 13.0 0.00 0.27 0.00 73 1006.0
20260506165125 62 270 9.0 15.0 0.00 0.27 0.00 73 1005.8
20260506164622 62 270 11.0 15.0 0.00 0.27 0.00 72 1005.6
20260506164125 62 270 11.0 17.0 0.00 0.27 0.00 72 1005.9
20260506163622 62 270 11.0 17.0 0.00 0.27 0.00 71 1005.7
20260506163125 62 293 12.0 17.0 0.00 0.27 0.00 72 1006.0
20260506162622 62 293 13.0 18.0 0.00 0.27 0.00 71 1005.6
20260506162122 63 293 12.0 15.0 0.00 0.27 0.00 71 1005.6
20260506161622 63 248 10.0 17.0 0.00 0.27 0.00 71 1005.7
20260506161125 63 293 11.0 17.0 0.00 0.27 0.00 71 1005.7
20260506160623 62 270 13.0 22.0 0.00 0.27 0.00 69 1005.7
20260506160125 63 293 11.0 20.0 0.00 0.27 0.00 69 1005.9
20260506155625 63 270 14.0 18.0 0.00 0.27 0.00 69 1005.7
20260506155122 63 293 12.0 15.0 0.00 0.27 0.00 70 1005.7
20260506154622 63 270 12.0 22.0 0.00 0.27 0.00 69 1005.7
20260506154125 62 270 14.0 24.0 0.00 0.27 0.00 68 1005.8
20260506153622 63 293 12.0 19.0 0.00 0.27 0.00 69 1005.7
20260506153127 62 293 15.0 19.0 0.00 0.27 0.00 70 1005.8
20260506152625 62 293 14.0 18.0 0.00 0.27 0.00 70 1005.7
20260506152128 63 270 12.0 19.0 0.00 0.27 0.00 70 1005.6
20260506151625 63 248 13.0 24.0 0.00 0.27 0.00 70 1005.8
20260506151122 62 270 15.0 22.0 0.00 0.27 0.00 70 1005.7
20260506150625 62 315 13.0 22.0 0.00 0.27 0.00 68 1005.5
20260506150122 62 270 12.0 26.0 0.00 0.27 0.00 71 1005.7
20260506145622 62 270 19.0 27.0 0.00 0.27 0.00 71 1005.8
20260506145125 63 293 14.0 24.0 0.00 0.27 0.00 71 1006.0
20260506144622 62 270 19.0 28.0 0.00 0.27 0.00 71 1005.8
20260506144122 62 293 19.0 26.0 0.00 0.27 0.00 72 1005.8
20260506143622 62 293 18.0 26.0 0.00 0.27 0.00 71 1005.8
20260506143128 62 270 19.0 22.0 0.00 0.27 0.00 73 1005.8
20260506142622 61 293 18.0 25.0 0.00 0.27 0.00 74 1005.7
20260506142125 62 270 15.0 22.0 0.00 0.27 0.00 75 1006.0
20260506141625 61 270 18.0 22.0 0.00 0.27 0.00 75 1006.0
20260506141122 61 270 17.0 25.0 0.00 0.27 0.00 74 1006.0
20260506140622 62 293 19.0 27.0 0.00 0.27 0.00 76 1006.0
20260506140125 61 270 22.0 27.0 0.00 0.27 0.00 75 1006.0
20260506135622 61 270 18.0 27.0 0.00 0.27 0.00 75 1006.2
20260506135122 62 270 19.0 25.0 0.00 0.27 0.00 75 1006.2
20260506134625 61 293 21.0 25.0 0.00 0.27 0.00 77 1006.0
20260506134122 61 270 18.0 25.0 0.00 0.27 0.00 78 1006.5
20260506133628 61 270 16.0 25.0 0.00 0.27 0.00 79 1006.2
20260506133128 60 270 20.0 26.0 0.00 0.27 0.00 80 1006.2
20260506132625 60 270 22.0 26.0 0.00 0.27 0.00 80 1006.0
20260506132122 59 270 22.0 27.0 0.00 0.27 0.00 79 1006.4
20260506131625 60 270 22.0 27.0 0.00 0.27 0.00 78 1006.2
20260506131122 61 270 20.0 28.0 0.00 0.27 0.00 78 1006.3